EHI
26 23 17 16 24 35 46 46 40 37 31 22 18 17 15 14 13 14 17 19 18 17 16 14 12 13 13 11 9 9 11 11 9 9 9 8 8 12 16 18 16 14 15
27 27 23 20 25 34 42 44 41 38 33 26 21 19 19 18 18 18 19 20 19 19 18 17 14 15 16 14 11 10 10 10 9 10 10 9 9 11 13 13 14 14 14
26 28 27 25 25 30 37 41 42 39 34 27 23 22 22 23 23 23 22 21 20 20 22 20 17 17 19 16 13 12 11 10 9 11 11 10 10 10 9 10 11 14 15
24 25 26 26 25 27 34 42 44 40 32 25 20 21 23 24 25 26 25 24 23 23 23 22 20 20 20 17 14 13 13 12 11 11 11 11 10 9 7 7 9 13 15
23 24 26 27 27 27 33 42 46 40 30 23 18 19 21 22 24 27 28 28 28 28 26 25 23 23 23 20 17 16 17 17 14 11 9 8 7 6 5 5 6 9 11
20 22 26 29 29 28 32 40 45 40 30 23 20 19 19 21 23 26 29 29 29 30 30 29 27 26 26 24 22 22 23 22 16 12 10 6 4 4 4 4 3 4 6
18 19 25 30 31 31 33 40 44 39 30 25 23 23 23 23 24 26 28 27 26 27 30 30 29 29 28 26 25 26 25 22 17 14 11 8 6 5 5 5 4 3 3
17 19 24 29 32 32 35 41 42 37 30 28 27 27 27 26 26 27 28 28 25 25 29 31 29 29 28 27 27 28 26 23 19 15 13 12 11 10 9 9 7 5 2
18 20 23 27 29 31 35 39 41 38 34 31 31 29 29 31 29 30 31 27 24 26 30 30 28 27 26 27 28 29 27 25 21 18 16 14 13 13 13 14 11 7 4
18 19 21 23 26 29 33 37 41 42 39 36 34 32 32 34 34 33 31 27 24 26 28 29 28 26 25 25 27 27 25 24 23 21 18 15 13 13 14 15 13 9 7
17 18 19 21 25 29 33 36 40 41 40 40 40 37 35 35 34 31 28 27 27 27 27 29 29 28 26 26 25 23 21 20 21 21 19 16 15 16 16 15 12 10 10
17 18 21 24 28 32 36 38 38 38 39 42 43 39 36 34 31 28 27 27 28 27 28 29 29 27 25 26 25 23 19 17 17 18 17 18 19 20 19 17 14 11 10
20 23 27 33 36 38 40 40 38 36 38 42 41 38 36 33 30 29 29 28 26 26 26 27 25 23 22 23 24 23 20 17 15 16 17 18 20 21 20 20 17 13 10
24 27 34 39 40 40 41 41 38 35 37 40 40 37 36 35 31 29 29 27 25 24 24 24 21 20 19 20 21 22 21 18 16 16 17 17 17 17 17 17 17 14 11
26 30 35 37 37 37 39 39 37 35 36 37 37 36 35 34 32 29 28 27 25 23 23 23 21 19 18 16 16 18 19 18 17 15 15 14 13 11 11 11 12 11 11
25 29 31 33 34 33 35 38 38 37 35 34 32 31 31 31 30 28 27 26 25 25 24 24 23 19 15 11 9 12 15 17 17 15 13 12 10 8 7 7 6 6 6
25 26 27 28 29 30 33 35 36 35 32 29 26 25 26 27 27 26 25 24 24 25 24 24 22 17 11 6 5 6 10 12 14 14 13 11 8 6 6 6 5 4 4
23 23 24 25 26 28 30 30 29 30 28 25 23 22 24 25 25 26 26 24 23 22 22 21 18 14 9 4 2 2 4 6 9 11 13 11 7 5 5 5 6 7 7
20 21 22 23 25 28 27 25 25 26 26 24 23 24 24 24 24 26 27 26 23 19 17 15 14 12 8 3 0 1 2 3 5 7 8 8 6 4 3 4 6 7 7
18 19 19 21 24 26 23 21 22 25 26 25 25 26 26 24 24 24 25 24 20 16 13 12 12 10 6 2 0 1 2 3 4 5 5 5 4 3 3 4 5 5 6
17 18 19 21 23 24 22 21 22 24 25 25 26 26 25 23 22 22 20 18 16 15 13 13 12 10 6 3 1 0 1 3 4 6 6 4 3 2 1 2 3 4 5
17 18 19 22 24 24 23 23 24 25 24 23 23 23 21 19 18 18 16 14 14 14 13 12 12 10 7 4 1 0 0 1 3 5 5 3 2 2 1 1 2 3 4
18 17 18 21 25 25 24 25 26 26 24 22 21 20 18 16 14 13 12 13 14 13 11 11 11 9 7 5 2 0 0 0 1 2 2 1 1 2 2 1 1 3 3
17 17 17 20 21 22 22 24 26 26 23 20 18 16 14 12 10 8 9 11 13 11 9 10 10 8 7 6 4 2 1 1 1 1 1 1 1 3 3 2 2 3 4
15 15 16 17 16 16 18 21 25 25 20 17 15 12 10 8 7 5 5 7 8 7 7 8 8 6 6 5 5 4 2 2 2 3 4 4 3 3 3 3 3 5 6
13 14 14 14 14 13 15 19 24 24 18 15 13 10 8 6 5 4 3 3 3 3 4 5 5 4 4 4 3 2 2 1 1 4 7 6 4 3 3 3 4 6 6
Wind_Speed
8 7 7 7 9 8 7 6 5 5 3 2 2 2 2 2 2 3 3 3 2 2 1 1 1 2 1 1 2 2 3 3 2 2 2 3 3 2 2 2 2 2 3
8 8 7 7 8 8 7 6 5 5 4 3 2 2 2 2 2 2 3 3 2 2 2 1 2 1 1 1 2 2 2 2 1 1 2 2 2 2 3 2 3 3 2
8 7 6 6 8 8 7 5 5 4 2 2 2 2 2 1 1 2 2 2 2 2 1 1 2 1 1 1 2 1 2 2 2 1 1 1 2 2 2 2 1 1 2
9 9 7 5 7 8 7 6 5 4 3 2 2 2 2 2 2 2 2 3 3 3 3 2 2 1 1 1 2 0 2 2 2 2 1 1 1 1 2 2 1 1 1
8 9 9 7 6 7 7 7 6 4 3 3 2 2 1 2 1 2 2 3 3 3 2 1 1 1 1 1 2 1 1 1 2 2 2 2 2 2 2 2 3 2 2
9 8 8 8 7 7 7 7 6 4 3 3 3 3 2 1 1 1 1 2 2 2 2 2 2 2 1 1 2 2 2 1 2 2 2 2 2 2 2 3 3 2 2
9 9 8 8 7 7 6 7 6 4 3 3 3 3 2 2 2 2 2 2 2 2 2 2 2 2 2 2 2 2 2 2 2 2 2 2 3 2 2 3 3 3 2
8 9 9 8 7 7 6 7 7 5 4 3 3 2 3 3 2 2 2 2 1 1 1 1 2 2 2 2 1 2 2 2 2 3 2 2 3 3 2 2 2 3 3
8 8 8 8 7 7 6 6 7 5 5 4 3 3 3 2 2 2 2 2 1 1 0 1 1 2 2 2 2 2 2 2 2 2 2 2 3 3 3 2 2 2 3
6 7 7 6 5 6 6 6 6 6 5 4 4 3 3 2 2 2 1 1 2 2 1 1 2 2 2 2 2 2 2 2 2 2 2 3 3 3 3 3 2 2 2
5 5 5 5 5 5 5 6 5 5 5 4 3 2 3 3 2 2 2 2 1 1 1 1 1 2 2 2 3 3 3 3 3 3 3 3 3 3 3 3 3 2 2
4 4 4 4 4 2 2 3 3 4 4 4 3 3 2 2 3 2 1 1 1 1 1 1 2 2 2 2 2 3 3 3 3 3 3 4 3 3 3 2 3 3 2
4 3 3 3 3 2 1 1 1 1 1 2 3 2 1 1 1 1 1 1 1 1 1 1 1 2 2 2 2 2 3 3 3 3 3 3 3 3 2 3 3 3 3
4 4 4 3 2 2 2 1 1 1 1 1 1 1 1 0 0 1 0 0 0 1 1 1 1 2 2 2 2 2 3 3 3 3 3 3 2 3 3 3 3 3 3
4 4 4 3 2 2 2 2 1 1 1 1 1 1 1 1 0 1 0 0 1 1 1 1 2 2 2 2 2 3 3 3 3 3 3 2 2 3 3 4 3 3 3
4 4 3 3 2 2 1 1 1 1 1 1 1 1 1 1 0 0 0 0 1 1 1 2 1 2 2 3 4 3 4 3 3 3 3 3 2 3 4 6 6 5 4
4 3 2 2 2 2 2 1 1 1 1 1 1 1 1 1 0 1 1 1 1 1 1 1 1 1 2 3 3 4 4 4 3 3 3 4 3 2 3 4 6 6 7
3 3 2 1 2 3 3 2 1 1 1 1 0 1 1 1 0 1 1 1 1 1 1 1 1 0 1 2 3 5 5 4 4 3 3 3 3 4 4 5 5 5 5
3 3 2 3 3 3 3 2 1 1 1 1 0 0 0 0 1 1 1 1 1 2 2 2 1 1 0 0 1 3 4 3 4 3 3 3 2 3 4 4 5 5 5
4 3 3 3 2 3 2 2 2 2 1 1 1 1 1 1 2 2 1 1 2 2 2 2 2 1 1 1 1 2 3 3 3 3 2 1 1 3 4 4 5 6 6
3 3 2 2 2 1 1 2 2 2 2 2 2 2 2 2 2 1 1 2 2 2 3 3 2 1 2 2 1 1 2 4 4 4 3 2 2 4 6 5 5 7 7
2 2 1 1 1 2 2 2 3 3 3 2 2 2 2 3 2 1 2 2 2 3 3 2 1 1 1 1 1 2 3 4 4 4 3 3 6 7 8 6 7 9 7
2 1 1 1 2 2 2 2 2 3 3 2 2 3 3 3 2 2 2 2 2 2 2 2 1 1 0 1 1 3 5 5 4 4 6 7 8 8 7 8 8 6 4
2 3 3 3 2 2 2 2 2 2 2 3 3 3 3 2 1 2 1 1 1 1 2 2 2 1 0 1 1 2 3 4 4 4 6 9 9 8 7 6 4 4 3
2 2 2 3 3 3 2 2 2 2 2 3 3 3 3 2 1 1 2 1 1 1 2 2 2 1 1 2 2 3 3 3 3 4 5 4 4 3 3 3 2 2 2
2 2 2 2 2 2 2 2 2 2 2 3 3 3 3 2 2 1 1 2 1 2 2 2 1 1 1 3 3 4 4 5 5 4 4 4 4 3 3 3 3 2 2
Wind_Direction
136 135 138 135 132 133 136 138 145 141 146 155 172 173 176 181 176 166 171 178 197 208 235 269 231 240 223 252 271 266 273 272 265 284 295 267 236 221 213 213 217 207 200
143 140 142 143 139 136 137 140 146 148 162 171 175 184 184 192 171 154 153 179 191 212 218 224 260 251 224 237 275 281 287 289 303 302 305 307 297 287 232 203 207 214 203
149 144 144 149 145 144 142 141 139 143 159 156 175 179 162 203 174 164 179 196 197 202 245 226 259 276 253 228 263 273 292 294 294 302 312 315 311 318 272 252 224 207 195
149 150 149 155 153 147 145 138 136 138 149 167 195 203 182 200 193 190 182 190 196 208 208 225 238 261 270 262 278 168 284 285 290 299 269 251 280 288 305 307 287 247 234
151 150 153 155 153 146 146 144 139 149 158 184 194 221 216 213 206 186 187 203 193 211 208 181 222 251 259 264 293 302 296 294 297 298 298 292 281 252 261 287 303 298 270
146 148 149 148 154 148 147 146 144 157 172 192 196 210 231 248 242 232 220 233 205 206 190 187 218 239 249 263 272 277 279 274 293 294 296 299 298 298 280 273 277 277 276
149 151 150 150 154 149 146 142 144 162 185 196 202 201 221 242 231 239 232 248 232 209 193 208 210 233 238 240 252 264 269 273 277 282 291 298 292 295 294 293 291 289 283
153 152 152 152 157 157 155 150 152 173 191 199 200 207 212 237 237 234 253 250 263 252 195 220 237 238 249 263 245 265 259 261 273 285 293 295 293 295 280 274 285 296 292
156 153 156 161 167 167 166 165 162 175 194 204 203 210 214 227 255 243 228 265 286 273 158 253 256 258 262 268 264 257 269 271 274 279 283 276 283 285 290 282 266 273 290
148 152 154 157 161 165 168 173 172 178 189 200 211 214 205 207 218 255 248 251 300 334 341 305 304 289 285 276 270 265 267 258 258 249 260 268 280 293 289 288 293 280 271
134 142 147 148 157 174 175 176 177 176 189 203 205 209 202 203 206 216 236 246 260 275 283 274 285 294 290 281 275 270 270 265 266 268 258 259 268 283 293 295 290 283 274
118 123 131 133 141 153 157 164 183 188 188 187 190 199 205 209 211 208 214 225 246 265 270 270 266 272 289 294 288 287 284 273 270 275 273 272 273 272 277 291 294 292 282
90 84 83 97 107 107 93 126 144 167 183 186 192 190 196 218 240 226 194 220 231 277 300 308 307 308 299 294 297 294 289 286 282 278 271 266 274 278 280 281 289 288 291
92 79 71 77 88 97 84 71 75 98 105 106 154 154 184 217 316 339 319 258 247 265 274 266 279 279 296 312 318 312 290 293 293 292 289 289 285 282 287 280 281 285 289
92 81 66 66 62 71 85 82 64 62 70 84 66 63 70 76 50 318 333 308 274 265 270 267 275 281 284 328 347 316 302 305 297 300 299 284 280 279 275 284 285 285 282
83 73 66 63 65 58 71 85 79 83 90 92 75 56 73 74 73 329 35 354 286 294 288 285 287 305 325 13 15 346 315 311 306 305 305 283 264 270 266 273 277 270 264
87 78 66 52 50 46 49 69 85 102 94 77 62 71 86 73 46 321 357 291 276 289 286 301 310 4 8 8 2 339 306 298 295 295 304 305 305 296 284 275 265 264 258
86 76 41 32 41 42 31 21 35 100 119 118 18 36 69 56 20 311 308 289 290 282 269 278 283 283 335 13 350 327 302 298 294 287 280 291 309 317 313 296 286 276 271
82 84 71 34 34 39 22 2 347 77 92 50 1 18 346 297 274 262 262 263 249 255 251 252 244 251 139 314 325 323 303 295 297 293 303 311 330 337 324 298 292 288 283
71 71 64 54 41 33 15 347 346 359 12 354 330 305 252 253 254 241 249 257 245 254 264 261 250 215 208 220 334 322 299 301 304 298 289 320 342 332 327 303 292 287 288
75 68 69 72 75 51 17 345 345 344 340 335 329 324 302 275 248 213 237 243 250 258 265 259 249 216 184 171 155 274 306 311 310 306 297 297 321 308 298 290 281 278 285
70 73 62 67 79 67 33 5 0 355 352 348 335 318 303 289 282 234 243 246 252 249 246 247 240 204 169 165 216 240 274 305 308 307 317 316 310 300 287 278 274 285 289
22 8 344 46 43 48 35 354 357 1 352 334 323 303 294 285 276 258 251 244 243 274 278 271 275 259 242 193 218 250 272 284 287 307 316 305 292 288 279 265 268 275 271
9 357 10 20 21 21 20 1 7 2 336 332 326 308 293 286 285 276 274 270 275 278 283 281 281 290 323 6 342 305 293 291 294 300 298 289 276 276 276 277 270 257 262
10 7 9 358 2 18 10 2 5 338 321 316 313 304 296 294 290 311 328 293 291 246 242 288 313 318 309 296 292 296 299 301 304 305 285 283 288 283 285 283 281 284 298
21 6 0 354 359 7 356 353 350 343 329 316 306 295 294 288 278 260 301 359 246 219 194 197 223 265 257 258 278 295 304 304 306 297 292 299 296 299 305 310 312 305 303